Location: ????????
(56.0167°N, 38.0333°E)
Time: 09:29:22
(UTC+00:00)

Meteor 2-4 Rocket - Pass Details

Date: 19 May 2025
Orbit: 799 x 906 km, 81.2° (Epoch: 12 June)

Event Time Altitude Azimuth Distance (km) Brightness Sun altitude
Exits shadow 20:48:52 19° 179° (S) 1,926 4.9 -13.6°
Maximum altitude 20:52:58 70° 99° (E) 934 3.8 -13.7°
Drops below altitude 10° 20:58:48 10° 18° (NNE) 2,574 7.3 -13.8°
Sets 21:01:18 0° 16° (NNE) 3,528 8.3 -13.9°
